Simultaneous Nadir Overpasses (SNOs) Predictions

Prediction of SNOs between NOAA-15 and METOP-C Satellite Orbit:

Table of predicted SNOs for the next 14.0 days since TLE Epoch: 9/15/2024
Index Date (NOAA-15) Time (NOAA-15) Lat,Lon (NOAA-15) SZA (NOAA-15 ) Date (METOP-C) Time (METOP-C) Lat,Lon (METOP-C) SZA (METOP-C ) Distance(km) Time Diff (sec)
1 09/28/2024 09:14:57 -81.03,-100.68 94.59 09/28/2024 09:13:45 -81.02,-100.86 94.64 3.20 72
2 09/28/2024 10:05:23 81.03, 66.72 85.43 09/28/2024 10:04:25 81.04, 66.81 85.42 1.63 58
3 09/28/2024 10:55:56 -81.02,-125.83 94.56 09/28/2024 10:55:06 -81.03,-125.99 94.59 2.94 50
4 09/28/2024 11:46:23 81.04, 41.21 85.44 09/28/2024 11:45:47 81.03, 41.30 85.43 2.24 36
5 09/28/2024 12:36:56 -81.04,-151.33 94.54 09/28/2024 12:36:28 -81.02,-151.49 94.58 3.14 28
6 09/28/2024 13:27:22 81.04, 16.06 85.48 09/28/2024 13:27:08 81.04, 16.17 85.48 1.90 14
7 09/28/2024 14:17:55 -81.03,-176.48 94.51 09/28/2024 14:17:49 -81.03,-176.62 94.53 2.53 6
8 09/28/2024 15:08:21 81.03, -9.08 85.51 09/28/2024 15:08:29 81.05, -8.96 85.54 2.62 8
9 09/28/2024 15:58:54 -81.03, 158.38 94.48 09/28/2024 15:59:10 -81.04, 158.25 94.47 2.76 16
10 09/28/2024 16:49:21 81.05, -34.59 85.52 09/28/2024 16:49:51 81.04, -34.46 85.54 2.43 30
11 09/28/2024 17:39:54 -81.04, 132.87 94.46 09/28/2024 17:40:32 -81.03, 132.75 94.46 2.29 38
12 09/28/2024 18:30:20 81.04, -59.74 85.56 09/28/2024 18:31:12 81.05, -59.59 85.60 2.70 52
13 09/28/2024 19:20:53 -81.04, 107.73 94.43 09/28/2024 19:21:53 -81.04, 107.62 94.41 2.14 60



Historial Predications of SNOs between NOAA-15 and METOP-C
